Temp
-3 -3 -3 -3 -3 -3 -3 -3 -2 -2 -2 -2 -2 -2 -2 -2 -3 -3 -4 -3 -3 -4 -5 -5 -7 -7 -7 -6 -6 -5 -4 -4 -4 -7 -7 -5 -5 -5 -5 -6 -6 -6 -6 -5 -5
-3 -3 -3 -3 -3 -3 -3 -3 -3 -2 -2 -2 -2 -2 -2 -2 -2 -2 -3 -4 -4 -4 -5 -6 -7 -6 -6 -6 -6 -6 -6 -6 -6 -6 -6 -6 -5 -5 -5 -5 -6 -7 -5 -6 -5
-3 -4 -3 -3 -3 -3 -3 -3 -3 -3 -3 -3 -2 -2 -2 -2 -2 -2 -3 -3 -3 -5 -5 -5 -5 -6 -4 -5 -6 -6 -6 -6 -6 -6 -7 -5 -6 -6 -5 -6 -5 -5 -5 -5 -5
-3 -3 -3 -3 -3 -3 -3 -3 -3 -3 -3 -3 -3 -3 -2 -2 -3 -2 -2 -2 -3 -3 -4 -5 -5 -5 -3 -5 -7 -6 -7 -7 -7 -7 -5 -5 -6 -6 -5 -6 -6 -5 -6 -5 -5
-3 -3 -3 -3 -3 -3 -3 -3 -3 -3 -3 -3 -3 -3 -3 -2 -3 -2 -2 -2 -2 -3 -4 -5 -6 -5 -4 -6 -7 -5 -6 -6 -7 -7 -7 -7 -7 -5 -6 -6 -5 -5 -6 -6 -6
-4 -4 -3 -3 -3 -3 -3 -3 -3 -2 -2 -3 -3 -3 -3 -2 -3 -3 -2 -3 -2 -3 -3 -4 -6 -7 -6 -6 -7 -5 -6 -7 -7 -7 -8 -7 -7 -6 -6 -6 -5 -5 -6 -6 -5
-4 -4 -3 -3 -3 -3 -3 -3 -3 -3 -3 -2 -3 -3 -3 -3 -3 -3 -2 -3 -3 -3 -3 -4 -6 -6 -5 -4 -6 -5 -5 -6 -7 -7 -7 -7 -6 -6 -6 -6 -6 -4 -5 -6 -5
-4 -3 -3 -3 -3 -3 -3 -3 -3 -3 -3 -3 -3 -3 -2 -3 -3 -3 -3 -3 -3 -3 -3 -4 -5 -5 -5 -5 -5 -5 -4 -5 -6 -7 -7 -7 -6 -6 -5 -6 -6 -5 -4 -5 -5
-4 -4 -3 -3 -3 -3 -3 -2 -2 -2 -2 -2 -3 -3 -2 -3 -2 -3 -3 -2 -3 -3 -3 -3 -3 -5 -5 -5 -6 -5 -5 -5 -6 -7 -6 -7 -6 -7 -5 -6 -6 -6 -5 -4 -5
-4 -4 -4 -3 -3 -3 -2 -2 -2 -2 -2 -2 -2 -3 -3 -2 -2 -2 -3 -3 -3 -3 -3 -3 -3 -3 -4 -5 -4 -5 -6 -5 -7 -5 -6 -7 -6 -6 -5 -6 -6 -5 -5 -5 -4
-4 -4 -4 -3 -3 -3 -3 -2 -2 -2 -2 -2 -2 -2 -3 -2 -3 -3 -2 -2 -2 -3 -3 -3 -3 -2 -3 -4 -5 -6 -7 -6 -7 -8 -7 -6 -6 -6 -6 -6 -6 -5 -5 -5 -5
-4 -4 -4 -4 -3 -3 -3 -3 -2 -2 -2 -2 -2 -2 -2 -2 -2 -2 -2 -2 -2 -2 -2 -2 -2 -3 -4 -4 -4 -6 -6 -6 -6 -6 -7 -7 -7 -7 -6 -6 -6 -5 -5 -5 -4
-4 -4 -4 -4 -4 -3 -3 -3 -3 -2 -2 -3 -3 -2 -3 -1 -2 -3 -2 -3 -2 -2 -2 -2 -3 -4 -4 -4 -4 -5 -6 -7 -6 -5 -6 -7 -7 -6 -6 -7 -6 -5 -5 -5 -4
-4 -4 -5 -5 -4 -4 -3 -4 -3 -2 -2 -2 -3 -2 -2 -2 -2 -2 -3 -3 -3 -3 -3 -2 -3 -3 -3 -3 -4 -4 -5 -7 -6 -6 -6 -6 -6 -7 -6 -6 -6 -5 -5 -4 -4
-5 -5 -5 -5 -5 -4 -4 -4 -3 -3 -2 -2 -2 -2 -2 -2 -3 -2 -3 -2 -2 -3 -3 -2 -3 -3 -2 -3 -4 -4 -6 -7 -7 -6 -7 -8 -5 -6 -6 -4 -5 -5 -5 -5 -4
-5 -5 -5 -4 -4 -5 -4 -5 -4 -4 -2 -3 -3 -3 -3 -3 -3 -3 -2 -2 -3 -2 -2 -3 -2 -2 -2 -3 -4 -4 -6 -6 -7 -7 -7 -6 -5 -5 -6 -4 -4 -4 -5 -5 -4
-5 -5 -5 -5 -5 -4 -4 -4 -4 -4 -3 -4 -4 -3 -3 -3 -4 -3 -3 -2 -2 -2 -2 -3 -2 -3 -3 -3 -3 -4 -5 -6 -7 -7 -4 -5 -5 -3 -5 -5 -4 -3 -4 -5 -5
-5 -5 -5 -5 -5 -5 -5 -4 -4 -3 -4 -4 -4 -3 -3 -4 -3 -3 -3 -3 -2 -2 -2 -3 -3 -3 -3 -3 -3 -3 -4 -4 -5 -6 -6 -6 -5 -2 -5 -6 -4 -5 -5 -5 -5
-5 -5 -5 -5 -5 -5 -5 -4 -4 -4 -4 -4 -4 -5 -4 -4 -4 -4 -3 -3 -3 -3 -3 -3 -3 -4 -3 -4 -4 -3 -3 -4 -5 -5 -6 -5 -6 -4 -5 -7 -6 -5 -6 -5 -5
-4 -5 -6 -5 -5 -5 -4 -4 -4 -4 -4 -4 -4 -5 -4 -4 -4 -4 -3 -3 -4 -4 -4 -4 -3 -4 -4 -4 -4 -4 -5 -5 -4 -5 -5 -4 -5 -3 -4 -5 -6 -6 -6 -5 -5
-5 -4 -6 -6 -5 -4 -4 -4 -5 -6 -5 -5 -5 -5 -4 -5 -4 -4 -3 -3 -4 -5 -7 -5 -4 -4 -5 -4 -4 -4 -4 -4 -5 -4 -3 -4 -3 -4 -4 -5 -6 -6 -6 -6 -5
-5 -5 -9 -6 -7 -6 -5 -6 -6 -5 -9 -6 -5 -6 -6 -6 -4 -4 -3 -4 -5 -5 -3 -4 -5 -3 -3 -4 -4 -4 -4 -4 -4 -4 -4 -3 -1 -4 -5 -6 -6 -6 -6 -6 -6
-10 -10 -10 -11 -9 -9 -8 -7 -8 -7 -7 -10 -7 -6 -6 -7 -6 -6 -4 -6 -6 -5 -4 -5 -3 -2 -3 -5 -6 -5 -3 -3 -4 -5 -3 -3 -2 -4 -5 -6 -6 -6 -6 -6 -6
-17 -17 -18 -18 -16 -14 -15 -14 -12 -12 -10 -10 -10 -8 -7 -8 -9 -8 -6 -6 -7 -7 -5 -5 -3 -3 -1 -3 -4 -4 -4 -4 -4 -4 -3 -1 -3 -3 -5 -6 -6 -7 -6 -6 -7
-23 -24 -25 -24 -24 -23 -22 -21 -19 -18 -17 -15 -13 -12 -11 -9 -10 -9 -9 -8 -8 -9 -8 -6 -4 -4 -2 -2 -6 -6 -5 -4 -4 -3 -3 -3 -4 -4 -5 -6 -6 -6 -7 -7 -7
-26 -26 -26 -26 -26 -25 -25 -24 -23 -23 -22 -21 -18 -16 -15 -12 -12 -11 -10 -10 -10 -10 -10 -8 -6 -6 -4 -3 -3 -6 -6 -5 -4 -5 -4 -4 -4 -5 -5 -5 -6 -6 -6 -7 -7
-26 -26 -26 -26 -26 -25 -25 -25 -24 -24 -23 -23 -22 -20 -19 -17 -14 -14 -12 -10 -10 -11 -10 -10 -8 -8 -6 -6 -6 -9 -2 -5 -6 -5 -5 -5 -5 -6 -6 -5 -6 -6 -7 -6 -7
Height
5898 5897 5896 5895 5894 5893 5892 5890 5889 5887 5886 5886 5886 5887 5888 5889 5889 5889 5889 5890 5888 5888 5888 5891 5890 5890 5893 5894 5896 5897 5895 5895 5894 5896 5896 5899 5902 5903 5905 5905 5903 5903 5904 5905 5905
5897 5896 5895 5894 5893 5891 5890 5889 5888 5886 5885 5884 5884 5884 5885 5886 5888 5887 5888 5887 5888 5888 5888 5889 5889 5890 5890 5896 5899 5900 5899 5898 5899 5901 5899 5896 5900 5903 5906 5907 5904 5902 5901 5903 5903
5895 5894 5893 5891 5890 5889 5889 5888 5886 5885 5884 5883 5882 5883 5882 5882 5884 5885 5885 5885 5886 5887 5885 5886 5887 5890 5889 5897 5900 5901 5900 5899 5902 5899 5898 5899 5900 5901 5904 5906 5905 5903 5902 5903 5903
5894 5892 5891 5889 5888 5887 5886 5885 5885 5884 5883 5882 5881 5881 5880 5879 5881 5882 5883 5882 5883 5884 5884 5884 5886 5889 5889 5898 5898 5898 5897 5900 5901 5899 5899 5899 5899 5901 5906 5906 5904 5903 5901 5902 5902
5891 5890 5889 5888 5887 5886 5885 5883 5883 5882 5882 5880 5880 5879 5879 5878 5878 5878 5880 5880 5881 5883 5883 5884 5885 5888 5889 5896 5898 5895 5896 5899 5901 5899 5901 5901 5900 5900 5903 5907 5905 5904 5902 5901 5902
5887 5886 5885 5884 5884 5883 5881 5881 5880 5880 5880 5880 5879 5878 5878 5877 5876 5875 5877 5878 5879 5880 5881 5883 5886 5888 5889 5892 5896 5894 5893 5895 5895 5901 5903 5902 5901 5902 5903 5903 5905 5903 5901 5901 5902
5882 5881 5881 5880 5879 5878 5877 5877 5876 5876 5877 5877 5877 5876 5877 5876 5874 5873 5874 5875 5877 5878 5878 5881 5882 5884 5889 5892 5893 5895 5893 5895 5896 5897 5900 5902 5904 5904 5903 5902 5903 5903 5902 5902 5902
5877 5876 5876 5875 5874 5873 5872 5871 5872 5872 5872 5873 5875 5874 5873 5873 5873 5871 5871 5872 5874 5875 5876 5878 5877 5882 5883 5890 5893 5896 5896 5895 5896 5894 5895 5899 5900 5902 5903 5903 5902 5903 5903 5903 5903
5871 5870 5870 5869 5869 5869 5867 5866 5867 5867 5867 5868 5871 5871 5870 5870 5870 5870 5868 5868 5870 5871 5873 5874 5874 5878 5880 5883 5887 5893 5896 5896 5894 5892 5896 5898 5899 5902 5901 5901 5903 5903 5903 5903 5906
5865 5864 5863 5862 5863 5863 5861 5861 5861 5862 5863 5863 5866 5868 5867 5866 5866 5868 5866 5865 5866 5867 5868 5870 5871 5873 5875 5877 5881 5889 5894 5892 5891 5895 5896 5896 5899 5900 5900 5900 5903 5904 5905 5907 5906
5859 5858 5857 5855 5857 5856 5854 5855 5857 5857 5858 5858 5861 5862 5861 5861 5862 5862 5863 5864 5863 5863 5865 5866 5868 5869 5874 5877 5883 5885 5889 5890 5890 5890 5891 5896 5896 5896 5898 5901 5904 5905 5906 5908 5907
5851 5850 5849 5847 5848 5849 5848 5848 5847 5847 5852 5851 5853 5857 5854 5854 5857 5856 5859 5860 5862 5861 5860 5861 5862 5869 5871 5873 5878 5881 5884 5888 5888 5890 5889 5891 5893 5895 5896 5901 5902 5905 5906 5908 5908
5840 5840 5840 5838 5837 5838 5839 5840 5838 5838 5841 5849 5844 5847 5848 5846 5853 5853 5852 5854 5857 5856 5857 5858 5862 5862 5865 5867 5871 5876 5879 5885 5886 5886 5887 5889 5891 5894 5894 5895 5899 5901 5905 5908 5907
5828 5827 5828 5829 5828 5826 5828 5831 5830 5829 5829 5839 5836 5839 5840 5841 5846 5848 5849 5849 5850 5854 5852 5854 5855 5856 5857 5861 5866 5871 5878 5880 5882 5881 5881 5884 5889 5887 5893 5892 5893 5899 5902 5905 5907
5814 5814 5814 5816 5815 5814 5816 5817 5819 5820 5815 5827 5827 5830 5833 5835 5839 5840 5840 5840 5844 5845 5847 5853 5851 5852 5853 5859 5860 5873 5872 5875 5876 5877 5877 5879 5882 5886 5888 5889 5891 5897 5899 5904 5905
5798 5798 5799 5798 5800 5802 5800 5803 5807 5808 5802 5811 5813 5818 5822 5825 5827 5828 5831 5834 5837 5836 5838 5845 5844 5846 5850 5851 5855 5865 5865 5869 5869 5869 5863 5871 5874 5877 5883 5889 5889 5892 5897 5902 5902
5781 5780 5780 5782 5780 5785 5786 5786 5791 5791 5794 5799 5796 5805 5809 5811 5813 5816 5819 5823 5828 5829 5833 5839 5837 5840 5843 5846 5848 5852 5856 5859 5859 5853 5851 5866 5865 5870 5877 5884 5887 5888 5892 5895 5900
5762 5761 5760 5757 5763 5764 5767 5769 5770 5776 5781 5780 5784 5786 5795 5798 5803 5804 5807 5810 5816 5818 5824 5826 5829 5834 5839 5839 5844 5843 5847 5847 5845 5847 5853 5858 5851 5864 5874 5878 5879 5881 5886 5891 5896
5738 5739 5736 5734 5738 5744 5745 5747 5752 5758 5759 5765 5771 5771 5774 5780 5789 5790 5791 5797 5805 5809 5813 5817 5820 5828 5826 5831 5834 5838 5833 5845 5845 5849 5848 5848 5850 5859 5865 5868 5873 5876 5881 5886 5891
5711 5713 5708 5707 5711 5716 5720 5728 5730 5733 5735 5741 5750 5754 5756 5758 5765 5775 5780 5786 5791 5795 5800 5806 5808 5817 5820 5820 5821 5823 5833 5834 5832 5834 5835 5839 5842 5849 5859 5864 5865 5870 5874 5877 5883
5679 5682 5676 5676 5679 5684 5692 5698 5703 5709 5709 5718 5721 5728 5737 5737 5741 5752 5766 5771 5773 5783 5788 5793 5794 5808 5806 5803 5812 5815 5816 5820 5827 5829 5828 5832 5830 5844 5853 5857 5860 5863 5869 5873 5874
5642 5645 5640 5642 5647 5653 5661 5666 5669 5675 5682 5685 5694 5701 5709 5715 5725 5729 5745 5757 5759 5761 5764 5769 5778 5785 5791 5800 5803 5806 5807 5812 5813 5817 5822 5825 5821 5839 5848 5851 5855 5858 5862 5868 5870
5603 5605 5599 5603 5609 5615 5623 5629 5633 5638 5648 5655 5663 5674 5684 5695 5705 5712 5721 5736 5736 5744 5748 5756 5761 5767 5777 5781 5781 5784 5795 5802 5806 5811 5809 5815 5817 5834 5838 5843 5848 5850 5854 5859 5863
5574 5575 5573 5570 5577 5582 5591 5598 5603 5608 5615 5622 5634 5642 5654 5666 5678 5689 5696 5708 5714 5724 5729 5735 5744 5746 5759 5773 5778 5778 5785 5790 5795 5795 5800 5799 5810 5828 5832 5835 5840 5844 5849 5852 5856
5560 5557 5555 5557 5559 5561 5567 5574 5580 5584 5588 5598 5605 5614 5624 5637 5652 5660 5674 5684 5695 5702 5711 5719 5726 5731 5743 5753 5762 5769 5775 5780 5782 5790 5790 5801 5803 5816 5826 5829 5833 5837 5841 5846 5849
5555 5553 5552 5552 5553 5554 5558 5562 5568 5568 5573 5577 5581 5590 5600 5611 5620 5638 5649 5665 5674 5686 5696 5701 5707 5714 5723 5738 5746 5751 5761 5767 5772 5779 5783 5789 5795 5804 5814 5818 5822 5827 5831 5835 5841
5551 5550 5549 5550 5549 5550 5550 5552 5556 5558 5563 5565 5566 5571 5580 5588 5594 5612 5626 5644 5657 5667 5678 5688 5691 5698 5708 5720 5732 5735 5743 5753 5760 5767 5774 5777 5787 5797 5801 5810 5812 5818 5822 5826 5831
Wind_Speed
6 6 5 5 5 6 6 6 6 7 7 7 8 11 10 8 5 5 8 5 13 17 20 14 18 17 12 8 3 20 16 13 14 7 8 13 13 12 8 4 2 2 2 5 5
7 7 7 6 6 6 6 6 6 6 6 6 6 6 12 11 9 8 2 6 10 14 20 18 19 16 17 14 5 9 8 4 6 10 9 20 17 13 12 11 3 6 2 6 6
7 8 8 9 8 7 7 6 5 6 5 5 4 5 5 12 12 11 10 9 10 15 23 22 20 19 17 14 10 11 11 2 8 10 8 15 22 20 15 12 6 5 4 6 8
9 8 8 8 8 8 8 7 5 4 5 6 4 3 4 8 13 14 14 11 11 13 15 18 18 18 15 10 8 9 13 16 14 11 11 13 14 17 11 11 6 5 4 5 8
11 10 10 10 9 9 9 8 7 6 4 4 4 4 4 7 8 14 18 15 12 12 14 18 18 19 18 14 11 10 11 10 9 17 18 8 19 13 15 9 4 1 1 4 8
14 14 13 13 12 11 11 11 10 9 6 5 6 5 6 5 8 11 18 19 17 15 17 14 14 19 24 22 16 10 13 11 1 1 8 19 11 18 17 15 10 8 6 5 8
17 17 16 17 15 14 14 14 12 12 11 8 7 9 8 6 6 10 11 20 19 18 18 18 23 24 22 19 22 18 13 21 19 13 15 13 13 17 18 16 16 11 8 8 8
19 19 18 19 18 17 17 17 15 13 13 12 9 10 9 7 7 10 8 12 22 22 20 24 28 24 25 22 18 15 15 14 13 20 16 13 10 20 15 11 10 11 4 10 10
20 20 20 21 20 21 22 20 18 18 18 16 13 12 12 9 9 7 11 9 15 25 25 24 28 27 28 26 25 14 8 12 15 19 19 12 14 19 15 11 6 8 4 6 12
23 23 23 22 21 21 26 23 21 20 19 20 16 16 16 13 11 9 10 11 13 20 28 28 25 27 28 30 24 17 10 14 14 8 7 9 11 14 17 13 5 4 2 3 8
25 26 25 26 22 22 27 25 25 25 22 23 19 17 20 17 16 14 14 12 13 13 19 28 29 26 23 22 22 23 17 18 17 14 14 13 14 14 14 9 3 2 4 6 7
33 31 31 33 32 29 28 27 27 31 25 27 27 18 24 22 18 19 17 16 13 13 15 16 19 25 26 27 24 30 22 24 25 21 16 20 18 22 10 5 4 3 4 7 5
37 37 36 37 38 37 36 34 35 34 29 19 28 26 25 28 18 18 21 19 17 19 15 12 10 20 28 30 27 28 31 28 29 27 22 30 28 21 11 8 5 4 6 8 8
41 41 40 40 42 42 40 37 39 38 38 25 30 30 30 31 24 22 19 23 23 22 21 17 16 19 24 30 30 27 28 33 35 31 27 26 20 31 16 10 8 10 8 7 7
45 44 44 43 43 46 46 44 42 42 45 34 35 31 30 31 26 24 27 30 26 25 27 14 19 19 20 18 29 17 33 36 36 35 34 33 28 22 25 17 14 12 9 10 7
53 51 49 49 46 46 50 49 46 47 51 42 41 37 31 32 31 32 32 31 31 33 31 24 25 24 20 21 23 24 34 38 41 42 47 39 33 22 30 10 13 14 15 9 11
58 58 57 55 55 51 51 53 52 51 50 47 49 46 42 41 38 38 36 36 34 34 32 27 29 27 25 23 24 28 37 42 47 50 48 38 34 24 18 18 8 14 15 19 16
62 63 63 65 61 60 59 58 57 55 55 55 53 52 48 46 44 44 47 45 42 40 34 34 36 28 25 27 24 28 37 45 50 53 46 41 45 23 17 15 12 6 9 12 18
68 68 68 69 70 67 67 66 64 62 63 61 57 58 58 55 52 50 51 48 43 41 38 38 38 30 33 28 31 29 37 37 46 47 50 48 46 33 26 22 18 14 15 12 13
69 69 69 72 74 73 74 73 70 68 68 68 65 64 63 63 62 58 57 53 48 44 40 40 43 36 34 35 39 38 30 36 46 51 55 52 51 41 34 23 15 17 19 15 13
73 71 70 72 74 75 75 74 71 66 71 70 71 70 70 69 69 66 61 59 56 46 37 43 46 39 42 48 42 41 42 41 39 41 45 46 43 44 36 28 20 20 19 18 20
82 78 70 75 70 72 72 70 73 75 70 76 77 76 75 74 74 74 68 64 62 59 63 57 51 52 48 44 46 45 44 42 44 44 40 37 36 32 37 37 31 25 23 17 21
80 75 71 67 69 68 70 73 75 78 78 77 80 81 81 79 78 77 75 68 68 68 67 60 63 60 57 54 56 58 52 47 44 41 45 42 37 24 36 41 39 30 27 21 30
59 49 44 44 53 59 57 64 71 76 82 83 84 87 86 85 84 83 83 78 75 72 73 69 68 69 65 58 55 56 55 54 51 52 47 43 42 22 37 46 39 27 21 25 38
33 27 20 21 29 38 40 47 56 64 71 77 83 89 91 91 88 92 88 86 82 77 75 76 76 74 71 64 55 57 56 55 56 52 52 40 42 33 29 49 44 35 28 22 33
21 14 12 10 25 27 29 32 24 43 52 60 72 78 84 91 92 94 97 90 85 80 74 77 80 77 77 74 67 60 60 58 55 52 52 50 46 36 34 46 49 46 40 37 31
18 14 12 8 12 23 31 35 37 33 34 34 43 61 68 75 88 92 99 99 91 85 80 74 80 79 78 73 65 52 68 65 61 57 53 53 44 36 35 37 53 56 52 39 40
Wind_Direction
326 335 313 307 316 321 324 337 340 318 294 298 280 252 241 229 234 252 219 214 215 225 231 219 188 191 194 182 247 14 98 124 124 103 343 27 34 22 29 38 2 172 221 233 207
325 322 317 316 315 318 315 309 308 331 330 285 277 273 252 235 218 241 232 210 222 222 230 230 211 209 219 177 116 69 117 89 122 77 15 11 20 15 24 32 136 260 263 234 214
315 325 323 319 316 324 331 345 317 306 332 354 313 269 263 246 224 222 224 229 217 206 223 226 234 208 233 171 152 116 141 200 113 44 35 50 22 9 20 4 341 314 282 221 192
297 311 319 314 316 316 317 324 329 333 323 324 323 349 252 252 231 216 220 231 223 221 219 224 230 223 236 147 151 131 95 115 42 20 21 3 352 358 34 46 1 322 289 258 163
280 291 301 310 313 310 314 324 325 319 324 332 355 344 308 258 258 223 213 227 225 217 224 219 225 215 223 166 200 164 107 104 84 40 7 307 329 352 10 33 20 52 335 247 156
280 276 279 290 299 296 295 300 304 301 310 336 345 337 319 288 267 251 219 222 228 208 218 214 220 212 207 177 191 174 158 129 268 293 305 344 331 333 11 15 15 18 56 187 157
275 274 273 275 280 277 276 280 279 282 277 282 313 326 336 313 285 276 250 221 223 228 212 207 214 219 215 193 197 197 160 139 159 245 230 301 346 355 13 11 346 8 62 140 152
271 272 271 268 269 269 270 271 271 269 270 264 270 288 295 309 288 280 262 239 223 227 219 211 219 214 220 216 213 214 222 185 166 204 234 271 312 352 359 10 349 337 60 125 152
273 274 274 275 275 275 271 267 266 265 265 265 265 266 275 272 274 273 273 250 237 227 229 221 223 216 218 224 226 220 242 220 193 208 225 250 277 317 344 19 15 322 346 118 138
275 273 273 272 272 270 270 268 263 263 266 270 267 264 263 257 253 254 257 260 240 232 232 231 231 230 224 221 232 227 239 234 208 215 243 292 294 300 351 13 27 283 271 175 150
272 273 274 274 272 268 267 265 266 265 266 265 264 263 258 251 246 240 246 252 247 247 247 242 240 238 245 240 224 223 212 227 207 221 253 269 284 298 321 348 321 247 230 205 184
268 264 266 269 269 265 264 271 272 263 254 263 264 253 263 250 244 248 236 240 240 236 238 253 254 241 239 242 230 226 215 214 237 218 233 269 280 287 272 283 261 293 226 218 199
268 267 265 263 264 266 264 267 268 268 264 244 260 255 246 254 242 246 253 242 237 242 244 245 257 242 237 237 230 218 226 212 229 228 223 222 240 259 221 246 174 198 237 222 198
271 272 269 266 267 264 262 264 266 267 264 252 249 253 255 256 250 248 247 251 244 240 241 236 236 242 237 232 235 223 215 210 219 223 223 240 257 252 214 204 180 184 191 206 203
269 268 267 264 265 267 265 262 259 262 263 261 256 255 250 256 252 249 245 246 245 241 243 242 236 238 249 253 235 210 210 207 216 228 228 233 235 211 222 195 171 190 182 213 211
272 270 270 269 263 262 262 260 259 258 257 258 255 254 250 246 249 247 248 245 243 244 245 231 233 236 231 239 236 207 207 209 215 223 231 228 236 199 233 258 231 207 180 237 228
270 270 270 268 269 264 260 260 257 254 258 257 257 251 246 244 242 242 245 244 244 248 253 247 246 238 235 234 233 217 208 213 217 222 234 227 233 230 216 231 244 234 244 245 245
269 268 267 265 261 262 262 259 256 254 252 256 258 257 252 249 247 248 247 246 242 243 244 240 238 239 242 239 238 235 221 223 222 226 237 235 236 219 207 242 226 213 263 259 263
267 265 265 263 261 257 255 255 257 254 252 250 251 253 255 252 246 245 246 244 241 243 244 245 244 235 230 230 235 233 234 224 227 234 236 238 240 231 209 220 236 247 259 273 277
270 268 269 265 261 259 256 253 253 251 249 249 246 245 248 250 247 241 242 243 237 239 242 242 243 230 232 231 228 227 231 225 226 229 233 239 239 242 224 217 238 254 262 274 289
278 273 273 267 263 258 256 253 249 247 246 242 241 240 239 242 244 244 237 236 238 226 234 239 241 226 228 232 229 229 227 229 230 237 241 246 249 242 238 223 220 241 252 267 279
283 281 277 271 264 259 256 251 247 242 236 240 235 233 233 232 238 242 240 236 234 233 232 225 231 232 233 231 237 229 233 233 236 235 241 253 256 243 234 223 226 232 222 241 271
289 286 280 272 265 258 252 246 242 240 234 231 235 233 229 226 228 232 237 236 232 233 235 226 231 229 225 224 225 231 231 230 236 241 244 247 258 225 221 220 226 236 234 239 244
297 292 278 265 258 253 245 240 238 235 233 230 228 230 228 224 220 223 228 229 229 227 233 231 232 231 229 231 230 233 231 234 231 237 243 249 250 224 210 216 219 220 218 232 243
308 302 286 254 241 246 243 239 235 236 235 232 227 224 226 224 219 218 221 225 226 222 223 230 233 232 235 226 223 231 235 235 238 242 244 251 253 244 213 214 220 219 214 238 246
313 309 335 264 234 239 236 239 242 242 242 242 237 232 227 226 222 213 215 217 217 214 212 222 229 228 233 230 223 221 227 233 238 239 243 244 243 244 222 215 218 222 226 231 243
301 299 306 298 262 237 239 232 235 242 239 241 248 244 240 233 227 220 215 212 210 207 208 212 226 226 228 225 220 211 227 226 232 235 240 241 242 239 238 217 218 225 230 234 246